DW6536 Weather Reports


Display with metric or nautical units.
time (UTC)temp
F
wind
direction
speed
MPH
gust
MPH
rain 1hr
in
rain 24hr
in
rain mn
in
humidity
%
barometer
mb
20260503200012 80 143 2.0 0.0 0.00 0.00 0.00 36 1018.4
20260503194514 79 207 3.0 0.0 0.00 0.00 0.00 40 1018.6
20260503193006 79 162 4.0 0.0 0.00 0.00 0.00 36 1018.9
20260503191505 79 142 3.0 0.0 0.00 0.00 0.00 40 1018.9
20260503190004 79 218 3.0 0.0 0.00 0.00 0.00 40 1019.2
20260503184605 79 168 3.0 0.0 0.00 0.00 0.00 40 1019.5
20260503183102 80 270 2.0 0.0 0.00 0.00 0.00 42 1019.6
20260503181601 79 221 3.0 0.0 0.00 0.00 0.00 40 1019.9
20260503180056 78 118 2.0 0.0 0.00 0.00 0.00 41 1020.3
20260503174552 77 253 3.0 0.0 0.00 0.00 0.00 43 1020.6
20260503173052 77 101 3.0 0.0 0.00 0.00 0.00 45 1020.7
20260503171550 77 153 2.0 0.0 0.00 0.00 0.00 41 1020.9
20260503081545 52 132 0.0 0.0 0.00 0.00 0.00 87 1019.8
20260503071532 52 132 0.0 0.0 0.00 0.00 0.00 86 1020.1
20260503054533 54 132 0.0 0.0 0.00 0.00 0.00 84 1020.4
20260503053035 54 132 0.0 0.0 0.00 0.00 0.00 83 1020.5
20260503051521 54 132 0.0 0.0 0.00 0.00 0.00 83 1020.5
20260503050017 55 132 0.0 0.0 0.00 0.00 0.00 81 1020.4
20260503044517 55 132 0.0 0.0 0.00 0.00 0.00 81 1020.3
20260503043025 56 132 0.0 0.0 0.00 0.00 0.00 80 1020.4
20260503041516 56 132 0.0 0.0 0.00 0.00 0.00 79 1020.2
20260503040026 57 132 0.0 0.0 0.00 0.00 0.00 78 1020.1
20260503034515 57 132 0.0 0.0 0.00 0.00 0.00 76 1020.2
20260503033016 58 132 0.0 0.0 0.00 0.00 0.00 74 1020.0
20260503031514 58 132 0.0 0.0 0.00 0.00 0.00 74 1019.9
20260503030013 58 132 0.0 0.0 0.00 0.00 0.00 74 1019.8
20260503024513 59 132 0.0 0.0 0.00 0.00 0.00 72 1019.7
20260503023012 60 132 0.0 0.0 0.00 0.00 0.00 70 1019.2
20260503021511 61 132 0.0 0.0 0.00 0.00 0.00 68 1019.1
20260503020011 62 132 0.0 0.0 0.00 0.00 0.00 67 1019.0
20260503014510 63 132 0.0 0.0 0.00 0.00 0.00 65 1018.9
20260503013010 65 132 0.0 0.0 0.00 0.00 0.00 62 1019.0
20260503011515 67 132 0.0 0.0 0.00 0.00 0.00 60 1018.7
20260503010009 69 132 0.0 0.0 0.00 0.00 0.00 59 1018.7
20260503004509 70 132 0.0 0.0 0.00 0.00 0.00 53 1018.6
20260503003008 71 91 0.0 0.0 0.00 0.00 0.00 50 1018.6
20260503001508 72 149 0.0 0.0 0.00 0.00 0.00 51 1018.6
20260503000007 73 149 0.0 0.0 0.00 0.00 0.00 48 1018.5
20260502234517 73 53 1.0 0.0 0.00 0.00 0.00 50 1018.5
20260502233006 73 53 1.0 0.0 0.00 0.00 0.00 44 1018.4
20260502231508 74 68 1.0 0.0 0.00 0.00 0.00 45 1018.3
20260502230006 74 79 1.0 0.0 0.00 0.00 0.00 47 1018.4
20260502224505 74 3 2.0 0.0 0.00 0.00 0.00 46 1018.4
20260502223005 74 48 1.0 0.0 0.00 0.00 0.00 46 1018.5
20260502221504 74 128 2.0 0.0 0.00 0.00 0.00 47 1018.5
20260502220003 74 71 1.0 0.0 0.00 0.00 0.00 48 1018.7
20260502214506 74 55 2.0 0.0 0.00 0.00 0.00 45 1018.7
20260502213002 74 67 2.0 0.0 0.00 0.00 0.00 43 1018.9
20260502211505 74 65 1.0 0.0 0.00 0.00 0.00 48 1019.1
20260502210004 74 57 2.0 0.0 0.00 0.00 0.00 44 1019.4
20260502204618 74 89 2.0 0.0 0.00 0.00 0.00 45 1019.7
20260502203059 74 24 2.0 0.0 0.00 0.00 0.00 46 1019.8
20260502201557 73 12 2.0 0.0 0.00 0.00 0.00 43 1020.0